Flag for Germany Weather past 2 weeks in Freising, Bavaria, Germany

Now
56 °F

Overcast.


Feels Like: 56 °F
Forecast: 47 / 60 °F
Wind: 3 mph from Northeast

Location: Muenchen Flughafen

Current Time: May 22, 2015 at 12:59:39 PM

Latest Report: May 22, 2015 at 12:00 PM


Visibility: 13 mi

Pressure: 30.26 "Hg

Humidity: 62%

Dew point: 43 °F

Location of FreisingLocation

Historic Weather in Freising — Graph

°F

Freising temperature yesterday

Maximum temperature yesterday: 53 °F (at 5:00 PM)
Minimum temperature yesterday: 44 °F (at 1:00 AM)
Average temperature yesterday: 48 °F

Past Weeks' High & Low Weather Summary

 TemperatureHumidityPressure
High80 °F (May 12, 4:00 PM)100% (May 16, 2:00 AM)30.39 "Hg (May 16, 2:00 AM)
Low42 °F (May 11, 5:00 AM)31% (May 12, 5:00 PM)29.69 "Hg (May 18, 8:00 PM)
Average57 °F76%30.07 "Hg
* Reported May 7 11:00 AM — May 22 11:00 AM, Freising, Weather by CustomWeather, © 2015

Note: Actual official high and low records may vary slightly from our data, if they occured in-between our weather recording intervals... More about our weather records

Advertising

Freising weather history for previous 24 hours

 ConditionsComfort  
Time TempWeatherWind HumidityBarometerVisibility
11:00 AM
Fri, May 22
55 °FOvercast.3 mph72%30.27 "Hg9 mi
10:00 AM51 °FOvercast.2 mph82%30.29 "Hg7 mi
9:00 AM49 °FOvercast.3 mph87%30.30 "Hg8 mi
8:00 AM47 °FPartly sunny.2 mph90%30.30 "Hg6 mi
7:00 AM45 °FFog.1 mph97%30.31 "Hg4 mi
6:00 AM43 °FFog.1 mph98%30.32 "Hg4 mi
5:00 AM44 °FFog.1 mph99%30.32 "Hg2 mi
4:00 AM44 °FFog.1 mph99%30.33 "Hg2 mi
3:00 AM44 °FFog.1 mph99%30.33 "Hg4 mi
2:00 AM47 °FOvercast.2 mph95%30.32 "Hg5 mi
1:00 AM47 °FOvercast.1 mph96%30.32 "Hg9 mi
12:00 AM48 °FOvercast.2 mph93%30.32 "Hg11 mi
11:00 PM
Thu, May 21
48 °FOvercast.1 mph86%30.31 "Hg19 mi
10:00 PM47 °FOvercast.1 mph95%30.31 "Hg12 mi
9:00 PM48 °FLight rain. Overcast.1 mph91%30.29 "Hg12 mi
8:00 PM48 °FLight rain. Overcast.3 mph92%30.28 "Hg11 mi
7:00 PM50 °FLight rain. Overcast.1 mph85%30.26 "Hg7 mi
6:00 PM52 °FLight rain. Overcast.2 mph82%30.23 "Hg12 mi
5:00 PM53 °FLight rain. Overcast.2 mph69%30.22 "Hg16 mi
4:00 PM53 °FLight rain. Overcast.2 mph71%30.22 "Hg16 mi
3:00 PM52 °FLight rain. Overcast.2 mph79%30.22 "Hg11 mi
2:00 PM51 °FLight rain. Overcast.3 mph80%30.22 "Hg11 mi
1:00 PM51 °FOvercast.3 mph83%30.21 "Hg9 mi
Weather by CustomWeather, © 2015

See weather overviewHow to use our weather pages